Location: Audinghen
(50.8518°N, 1.6129°E)
Time: 05:05:07
(UTC+00:00)

Meteor 1-29 - Pass Details

Date: 07 August 2020
Orbit: 438 x 461 km, 97.7° (Epoch: 23 September)

Event Time Altitude Azimuth Distance (km) Brightness Sun altitude
Rises 00:46:41 0° 16° (NNE) 2,503 8.2 -22.0°
Reaches altitude 10° 00:48:46 10° 21° (NNE) 1,623 6.8 -21.9°
Enters shadow 00:51:59 58° 82° (E) 548 3.3 -21.8°
